Colby, KS

4:26 AM CDT on August 29, 2016 (GMT -0500)
Shaltz

Weather History for KCBK - May, 2012

Change the Weather History Date:

Wednesday, May 30, 2012

  Actual Average (KGLD) Record (KGLD)
Temperature  
Mean Temperature 67 °F 64 °F  
Max Temperature 86 °F 78 °F 96 °F (1934)
Min Temperature 48 °F 51 °F 39 °F (1946)
Degree Days  
Heating Degree Days 0 3  
Month to date heating degree days 208  
Since 1 July heating degree days 5863  
Cooling Degree Days 2 2  
Month to date cooling degree days 37  
Year to date cooling degree days 41  
Growing Degree Days 17 (Base 50)    
Moisture  
Dew Point 50 °F    
Average Humidity 60    
Maximum Humidity 82    
Minimum Humidity 36    
Precipitation  
Precipitation 0.00 in 0.12 in 1.76 in (1938)
Month to date precipitation 2.83  
Year to date precipitation 6.36  
Snow  
Snow - 0.00 in - ()
Month to date snowfall 0.5  
Since 1 July snowfall 35.5  
Snow Depth -    
Sea Level Pressure  
Sea Level Pressure 29.92 in    
Wind  
Wind Speed 8 mph ()    
Max Wind Speed 16 mph    
Max Gust Speed 28 mph    
Visibility 10.0 miles    
Events Rain    
T = Trace of Precipitation, MM = Missing Value Source: Averaged Metar Reports

Daily Weather History Graph

Daily Weather History Graph

Search for Another Location

Airport or City:

Trip Planner

Search our weather history database for the weather conditions in past years. The results will help you decide how hot, cold, wet, or windy it might be!

Date:

Astronomy

May. 30, 2012 Rise Set
Actual Time 6:19 AM CDT 9:04 PM CDT
Civil Twilight 5:48 AM CDT 9:35 PM CDT
Nautical Twilight 5:08 AM CDT 10:15 PM CDT
Astronomical Twilight 4:23 AM CDT 11:00 PM CDT
Moon 3:46 PM CDT (5/30) 2:44 AM CDT (5/30)
Length of Visible Light 15h 47m
Length of Day
14h 44m
Waxing Gibbous, 70% of the Moon is Illuminated
May 30
Waxing Gibbous
Jun 4
Full
Jun 11
Last Quarter
Jun 19
New
Jun 26
First Quarter

Hourly Weather History & Observations

Time (CDT) Temp. Heat Index Dew Point Humidity Pressure Visibility Wind Dir Wind Speed Gust Speed Precip Events Conditions
12:15 AM 55.4 °F - 46.4 °F 72% 29.98 in 10.0 mi East 9.2 mph - N/A   Clear
12:35 AM 55.4 °F - 46.4 °F 72% 29.99 in 10.0 mi ESE 9.2 mph - N/A   Clear
12:55 AM 55.4 °F - 44.6 °F 67% 29.99 in 10.0 mi ESE 10.4 mph - N/A   Clear
1:15 AM 55.4 °F - 44.6 °F 67% 30.00 in 10.0 mi ESE 10.4 mph - N/A   Clear
1:35 AM 53.6 °F - 44.6 °F 72% 29.99 in 10.0 mi ESE 8.1 mph - N/A   Clear
1:55 AM 53.6 °F - 44.6 °F 72% 29.99 in 10.0 mi ESE 10.4 mph - N/A   Clear
2:15 AM 55.4 °F - 44.6 °F 67% 29.98 in 10.0 mi ESE 10.4 mph - N/A   Clear
2:35 AM 53.6 °F - 44.6 °F 72% 29.98 in 10.0 mi ESE 8.1 mph - N/A   Clear
2:55 AM 53.6 °F - 44.6 °F 72% 29.98 in 10.0 mi ESE 9.2 mph - N/A   Clear
3:15 AM 53.6 °F - 44.6 °F 72% 29.98 in 10.0 mi ESE 8.1 mph - N/A   Clear
3:35 AM 53.6 °F - 44.6 °F 72% 29.98 in 10.0 mi ESE 8.1 mph - N/A   Clear
3:55 AM 51.8 °F - 44.6 °F 76% 29.98 in 10.0 mi ESE 8.1 mph - N/A   Clear
4:15 AM 51.8 °F - 44.6 °F 76% 29.97 in 10.0 mi ESE 8.1 mph - N/A   Clear
4:35 AM 50.0 °F - 44.6 °F 82% 29.98 in 10.0 mi ESE 8.1 mph - N/A   Clear
4:55 AM 50.0 °F - 44.6 °F 82% 29.98 in 10.0 mi ESE 5.8 mph - N/A   Clear
5:15 AM 50.0 °F - 42.8 °F 76% 29.98 in 10.0 mi SE 4.6 mph - N/A   Clear
5:35 AM 51.8 °F - 42.8 °F 71% 29.98 in 10.0 mi SE 3.5 mph - N/A   Clear
5:55 AM 51.8 °F - 44.6 °F 76% 29.98 in 10.0 mi East 3.5 mph - N/A   Clear
6:15 AM 50.0 °F - 42.8 °F 76% 29.98 in 10.0 mi ENE 4.6 mph - N/A   Clear
6:35 AM 48.2 °F - 42.8 °F 82% 29.99 in 10.0 mi NNE 4.6 mph - N/A   Clear
6:55 AM 50.0 °F - 44.6 °F 82% 29.99 in 10.0 mi East 4.6 mph - N/A   Clear
7:15 AM 51.8 °F - 44.6 °F 76% 29.99 in 10.0 mi East 4.6 mph - N/A   Clear
7:35 AM 53.6 °F - 46.4 °F 77% 29.99 in 10.0 mi ESE 3.5 mph - N/A   Clear
7:55 AM 55.4 °F - 46.4 °F 72% 29.99 in 10.0 mi ESE 3.5 mph - N/A   Clear
8:15 AM 59.0 °F - 46.4 °F 63% 29.98 in 10.0 mi SE 9.2 mph - N/A   Clear
8:35 AM 60.8 °F - 46.4 °F 59% 29.98 in 10.0 mi SE 12.7 mph - N/A   Clear
8:55 AM 64.4 °F - 50.0 °F 59% 29.99 in 10.0 mi SE 15.0 mph 18.4 mph N/A   Clear
9:15 AM 64.4 °F - 50.0 °F 59% 30.00 in 10.0 mi SE 13.8 mph - N/A   Clear
9:35 AM 66.2 °F - 51.8 °F 60% 29.99 in 10.0 mi SE 10.4 mph - N/A   Clear
9:55 AM 68.0 °F - 51.8 °F 56% 29.99 in 10.0 mi ESE 10.4 mph - N/A   Scattered Clouds
10:15 AM 68.0 °F - 51.8 °F 56% 29.99 in 10.0 mi SE 9.2 mph - N/A   Overcast
10:35 AM 68.0 °F - 51.8 °F 56% 29.98 in 10.0 mi East 10.4 mph 16.1 mph N/A   Mostly Cloudy
10:55 AM 69.8 °F - 51.8 °F 53% 29.97 in 10.0 mi ESE 8.1 mph - N/A   Mostly Cloudy
11:15 AM 69.8 °F - 51.8 °F 53% 29.95 in 10.0 mi SE 8.1 mph - N/A   Mostly Cloudy
11:35 AM 71.6 °F - 53.6 °F 53% 29.93 in 10.0 mi SE 11.5 mph 17.3 mph N/A   Clear
11:55 AM 73.4 °F - 53.6 °F 50% 29.92 in 10.0 mi SE 12.7 mph 17.3 mph N/A   Clear
12:15 PM 75.2 °F - 53.6 °F 47% 29.92 in 10.0 mi South 8.1 mph 16.1 mph N/A   Scattered Clouds
12:35 PM 77.0 °F - 55.4 °F 47% 29.91 in 10.0 mi SSE 11.5 mph 17.3 mph N/A   Scattered Clouds
12:55 PM 77.0 °F - 55.4 °F 47% 29.90 in 10.0 mi SE 4.6 mph - N/A   Mostly Cloudy
1:15 PM 78.8 °F - 55.4 °F 44% 29.89 in 10.0 mi SSW 5.8 mph - N/A   Overcast
1:35 PM 78.8 °F - 57.2 °F 47% 29.89 in 10.0 mi SE 10.4 mph - N/A   Mostly Cloudy
1:55 PM 80.6 °F 80.8 °F 57.2 °F 45% 29.87 in 10.0 mi SSE 6.9 mph - N/A   Scattered Clouds
2:35 PM 82.4 °F 82.5 °F 59.0 °F 45% 29.85 in 10.0 mi South 9.2 mph 20.7 mph N/A   Clear
2:55 PM 80.6 °F 81.1 °F 59.0 °F 48% 29.85 in 10.0 mi SSW 6.9 mph 11.5 mph N/A   Scattered Clouds
3:15 PM 86.0 °F 85.4 °F 59.0 °F 40% 29.84 in 10.0 mi SW 8.1 mph - N/A   Mostly Cloudy
3:35 PM 86.0 °F 84.9 °F 57.2 °F 37% 29.83 in 10.0 mi South 15.0 mph 20.7 mph N/A   Mostly Cloudy
3:55 PM 80.6 °F 80.5 °F 55.4 °F 42% 29.81 in 10.0 mi SSE 12.7 mph 18.4 mph N/A   Scattered Clouds
4:15 PM 80.6 °F 80.5 °F 55.4 °F 42% 29.81 in 10.0 mi South 9.2 mph - N/A   Scattered Clouds
4:35 PM 78.8 °F - 55.4 °F 44% 29.81 in 10.0 mi West 5.8 mph - N/A Rain Light Rain
4:55 PM 77.0 °F - 48.2 °F 36% 29.80 in 10.0 mi NNW 3.5 mph 21.9 mph N/A Rain Light Rain
5:15 PM 69.8 °F - 53.6 °F 56% 29.81 in 10.0 mi North 10.4 mph - N/A Rain Light Rain
5:35 PM 68.0 °F - 59.0 °F 73% 29.78 in 10.0 mi South 4.6 mph - N/A   Overcast
5:55 PM 75.2 °F - 60.8 °F 61% 29.76 in 10.0 mi SSE 6.9 mph - N/A   Scattered Clouds
6:15 PM 78.8 °F - 57.2 °F 47% 29.75 in 10.0 mi SSE 6.9 mph - N/A   Clear
6:35 PM 80.6 °F 80.5 °F 55.4 °F 42% 29.78 in 10.0 mi Calm Calm - N/A   Clear
6:55 PM 80.6 °F 80.8 °F 57.2 °F 45% 29.80 in 10.0 mi West 8.1 mph 25.3 mph N/A   Mostly Cloudy
7:15 PM 78.8 °F - 53.6 °F 42% 29.82 in 10.0 mi North 13.8 mph 27.6 mph N/A   Mostly Cloudy
7:35 PM 78.8 °F - 53.6 °F 42% 29.82 in 10.0 mi NNW 11.5 mph - N/A   Scattered Clouds
7:55 PM 73.4 °F - 57.2 °F 57% 29.84 in 10.0 mi ENE 16.1 mph 20.7 mph N/A   Clear